TimeCEST,TemperatureF,Dew PointF,Humidity,Sea Level PressureIn,VisibilityMPH,Wind Direction,Wind SpeedMPH,Gust SpeedMPH,PrecipitationIn,Events,Conditions,WindDirDegrees,DateUTC
12:00 AM,59.0,53.6,82,29.56,-9999.0,ESE,10.4,-,N/A,,Clear,120,2013-05-17 22:00:00
12:30 AM,59.0,55.4,88,29.56,-9999.0,East,4.6,-,N/A,,Clear,90,2013-05-17 22:30:00
1:00 AM,59.0,53.6,82,29.56,-9999.0,ESE,5.8,-,N/A,,Clear,110,2013-05-17 23:00:00
1:30 AM,57.2,53.6,88,29.56,-9999.0,WSW,4.6,-,N/A,,Clear,240,2013-05-17 23:30:00
2:00 AM,56,53,86,29.58,16,SE,4.5,,,,Mostly Cloudy,130,2013-05-18 00:00:00
2:00 AM,55.4,53.6,94,29.59,-9999.0,SE,2.3,-,N/A,,Clear,130,2013-05-18 00:00:00
2:30 AM,55.4,51.8,88,29.59,6.2,SSE,4.6,-,N/A,,Partly Cloudy,160,2013-05-18 00:30:00
3:00 AM,57.2,53.6,88,29.56,6.2,SSE,4.6,-,N/A,,Partly Cloudy,160,2013-05-18 01:00:00
3:30 AM,57.2,53.6,88,29.59,6.2,SE,5.8,-,N/A,,Scattered Clouds,140,2013-05-18 01:30:00
4:00 AM,57.2,53.6,88,29.59,6.2,SSE,5.8,-,N/A,,Mostly Cloudy,150,2013-05-18 02:00:00
4:30 AM,57.2,53.6,88,29.59,6.2,South,3.5,-,N/A,,Mostly Cloudy,170,2013-05-18 02:30:00
5:00 AM,57.2,55.4,94,29.59,6.2,South,5.8,-,N/A,,Mostly Cloudy,190,2013-05-18 03:00:00
5:11 AM,57.2,55.4,94,29.59,6.2,SSW,6.9,-,N/A,Rain,Light Rain,210,2013-05-18 03:11:00
5:30 AM,55.4,53.6,94,29.62,3.7,SSW,15.0,-,N/A,Rain,Rain,210,2013-05-18 03:30:00
5:50 AM,53.6,51.8,94,29.62,3.7,SW,17.3,-,N/A,Rain,Rain,230,2013-05-18 03:50:00
6:00 AM,53.6,51.8,94,29.62,4.3,WSW,18.4,-,N/A,Rain,Rain,240,2013-05-18 04:00:00
6:06 AM,53.6,51.8,94,29.62,5.6,WSW,24.2,-,N/A,Rain,Light Rain,250,2013-05-18 04:06:00
6:24 AM,53.6,51.8,94,29.65,5.0,WSW,23.0,-,N/A,Rain,Rain,240,2013-05-18 04:24:00
6:30 AM,53.6,51.8,94,29.65,5.0,WSW,25.3,-,N/A,Rain,Rain,250,2013-05-18 04:30:00
7:00 AM,53.6,50.0,88,29.65,3.7,WSW,23.0,-,N/A,Rain,Rain,240,2013-05-18 05:00:00
7:30 AM,53.6,50.0,88,29.68,6.2,WSW,18.4,-,N/A,Rain,Light Rain,250,2013-05-18 05:30:00
8:00 AM,53,51,88,29.72,9,WSW,13.4,,,Rain,Light Rain,250,2013-05-18 06:00:00
8:00 AM,53.6,50.0,88,29.71,6.2,WSW,15.0,-,N/A,Rain,Light Rain,240,2013-05-18 06:00:00
8:30 AM,53.6,50.0,88,29.74,6.2,West,17.3,-,N/A,Rain,Light Rain,260,2013-05-18 06:30:00
9:00 AM,51.8,50.0,94,29.71,6.2,West,19.6,-,N/A,Rain,Light Rain,280,2013-05-18 07:00:00
9:30 AM,53.6,50.0,88,29.74,6.2,SW,12.7,-,N/A,Rain,Light Rain,230,2013-05-18 07:30:00
10:00 AM,53.6,50.0,88,29.77,6.2,SW,12.7,-,N/A,Rain,Light Rain,230,2013-05-18 08:00:00
10:19 AM,53.6,51.8,94,29.77,6.2,SW,12.7,-,N/A,,Mostly Cloudy,230,2013-05-18 08:19:00
10:30 AM,53.6,50.0,88,29.80,6.2,SW,13.8,-,N/A,,Mostly Cloudy,230,2013-05-18 08:30:00
11:00 AM,55.4,50.0,82,29.80,6.2,SW,15.0,-,N/A,,Mostly Cloudy,230,2013-05-18 09:00:00
11:30 AM,55.4,50.0,82,29.83,6.2,SW,16.1,-,N/A,,Scattered Clouds,230,2013-05-18 09:30:00
12:00 PM,57.2,50.0,77,29.83,6.2,SW,17.3,-,N/A,,Scattered Clouds,230,2013-05-18 10:00:00
12:30 PM,57.2,50.0,77,29.83,6.2,SW,17.3,-,N/A,,Scattered Clouds,230,2013-05-18 10:30:00
1:00 PM,59.0,51.8,77,29.86,6.2,WSW,18.4,-,N/A,,Scattered Clouds,240,2013-05-18 11:00:00
1:30 PM,59.0,48.2,67,29.86,6.2,WSW,13.8,-,N/A,,Scattered Clouds,250,2013-05-18 11:30:00
2:00 PM,60,48,54,29.85,31,WSW,11.2,,,,Partly Cloudy,250,2013-05-18 12:00:00
2:00 PM,60.8,48.2,63,29.86,6.2,WSW,11.5,-,N/A,,Scattered Clouds,240,2013-05-18 12:00:00
2:30 PM,59.0,48.2,67,29.86,6.2,WSW,11.5,-,N/A,,Scattered Clouds,250,2013-05-18 12:30:00
3:00 PM,62.6,50.0,63,29.86,6.2,WSW,11.5,-,N/A,,Scattered Clouds,250,2013-05-18 13:00:00
3:30 PM,62.6,48.2,59,29.86,6.2,SW,10.4,-,N/A,,Scattered Clouds,230,2013-05-18 13:30:00
4:00 PM,64.4,48.2,56,29.86,6.2,West,11.5,-,N/A,,Scattered Clouds,260,2013-05-18 14:00:00
4:30 PM,62.6,48.2,59,29.86,6.2,WSW,8.1,-,N/A,,Scattered Clouds,240,2013-05-18 14:30:00
5:00 PM,64.4,48.2,56,29.86,6.2,SW,8.1,-,N/A,,Scattered Clouds,230,2013-05-18 15:00:00
5:30 PM,64.4,46.4,52,29.86,6.2,WSW,9.2,-,N/A,,Scattered Clouds,240,2013-05-18 15:30:00
6:00 PM,66.2,48.2,52,29.86,6.2,West,5.8,-,N/A,,Partly Cloudy,260,2013-05-18 16:00:00
6:30 PM,66.2,48.2,52,29.86,6.2,West,4.6,-,N/A,,Partly Cloudy,280,2013-05-18 16:30:00
7:00 PM,66.2,46.4,49,29.83,6.2,West,3.5,-,N/A,,Partly Cloudy,270,2013-05-18 17:00:00
7:30 PM,68.0,48.2,49,29.83,-9999.0,Calm,Calm,-,N/A,,Clear,0,2013-05-18 17:30:00
8:00 PM,64,49,48,29.83,47,NNE,4.5,,,,Scattered Clouds,20,2013-05-18 18:00:00
8:00 PM,62.6,48.2,59,29.83,-9999.0,NE,3.5,-,N/A,,Clear,40,2013-05-18 18:00:00
8:30 PM,60.8,48.2,63,29.83,-9999.0,ENE,3.5,-,N/A,,Clear,60,2013-05-18 18:30:00
9:00 PM,57.2,48.2,72,29.83,-9999.0,ENE,5.8,-,N/A,,Clear,60,2013-05-18 19:00:00
9:30 PM,57.2,48.2,72,29.86,-9999.0,ENE,5.8,-,N/A,,Clear,60,2013-05-18 19:30:00
10:00 PM,53.6,48.2,82,29.86,-9999.0,ENE,5.8,-,N/A,,Clear,70,2013-05-18 20:00:00
10:30 PM,53.6,46.4,77,29.86,-9999.0,ENE,5.8,-,N/A,,Clear,70,2013-05-18 20:30:00
11:00 PM,53.6,46.4,77,29.86,-9999.0,East,5.8,-,N/A,,Clear,80,2013-05-18 21:00:00
11:30 PM,51.8,46.4,82,29.86,-9999.0,East,5.8,-,N/A,,Clear,80,2013-05-18 21:30:00